Find NOAA 9

NORAD ID: 15427 Int'l Des: 1984-123 Owner: NOAA Country: US operational
LEOCIRCULARRETROGRADESSO

Aktuelle Ansicht

3D-Globus wird geladen...

Über NOAA 9

Beschreibung wird geladen...

Nächste Überflüge

Passes for default location (London). Set your location on the main map for personalized predictions.

Höhenverlauf

Loading altitude history...

Zweizeiliger Elementsatz

1 15427U 84123A 26151.03954806 .00000142 00000-0 93483-4 0 9995
2 15427 99.0994 177.2793 0015320 41.9131 347.7191 14.17063221140999
Epoch: 31. Mai 2026 • Age: 14 hours

Aktueller Status

Höhe 835.9 km
Geschwindigkeit 7.45 km/s
Subsatellitenpunkt 62.69°N, 50.77°E
Startdatum 12. Dez. 1984
Alter 41.4 years
Typ weather

Technische Details

Klassifizierung Payload
Masse 1030.00 kg
Trockenmasse 1030.00 kg
Gesamtmasse 1712.00 kg
Länge 4.20 m
Durchmesser 1.90 m
Spannweite 8.00 m
Form Box + Pan
Hersteller RCA
Bus-Typ ATN
Phasenstatus In Orbit
Besitzer/Staat NOAA/US

Most Searched